SL-16 DEB, 22340

Orbit data source: Space-Track

SL-16 DEB, 22340 is space debris in LEO originally from a launch on Fri, 25 Dec 1992 UTC launched from the Tyuratam Missile And Space Complex (TTMTR). Debris objects in space refer to the collection of defunct objects orbiting the Earth. Examples of debris include non-operational satellites, rocket bodies, and fragments generated from explosions, collisions, or faulty payload assembly.

Loading next visibility...
Identifier
22340, 1992-093AD
Orbit
LEO
Last TLE update
8 hours ago
Origin
Manufacturer
Unknown
Mission
Spacecraft
Bus & Motor
Unknown
Mass
Unknown
Launch date (UTC)
1992-12-25 (33 years ago)
Launch vehicle
Unknown
Launch site
Tyuratam Missile And Space Complex (TTMTR)
Object type
Payload
Rocket body
Debris
Shape & HBR
Unknown
Radar Cross Section
Medium (>0.1 m² and <1 m²)

Expand to show TLE details & history

TLE from 8 hours ago
0 SL-16 DEB
1 22340U 92093AD  25186.92667238  .00000004  00000-0  35730-4 0  9995
2 22340  70.8758 106.1136 0100048 149.2238 290.2432 13.94493258654340
Epoch: 2025-07-05T22:14Z
TLE epoch observation values (Epoch: 2025-07-05T22:14:24.493Z)
Latitude
67.83764°
Longitude
-93.77835°
Altitude
899.516 km
Speed
7.421 km/s
True Right ascension
10h 55m 55s
True Declination
67° 43' 10"
Sunlit
Object was in daylight at epoch
Visualization orbit readout
Latitude
7.07762°
Longitude
-149.89491°
Altitude
971.198 km
Speed
7.338 km/s
Apparent Right ascension
06h 53m 59s
Apparent Declination
-14° 38' 14"
Sunlit
Object is in daylight
Visualization observer readout
Local Sidereal Time
18:27:57
Azimuth
345.467° N
Elevation
-64.087°
Doppler factor
1
Orbital elements
Apogee altitude
983.809 km
Perigee altitude
837.958 km
Semi-major axis
7,289.021 km
Eccentricity
0.01
Inclination
70.8758°
RAAN
106.1136°
Arg. of periapsis
149.2238°
True anomaly
Unknown
Mean anomaly
290.2432°
Eccentric anomaly
Unknown
Mean motion
3.4877 °/min
Orbital period
103.22 mins
BSTAR
0.00003573
Loading maneuver chart data...
Loading SW <> Apogee altitude chart data...
Loading historical data...
Loading historical data...
Loading historical data...
Loading historical data...
Loading historical data...
Loading historical data...
Loading historical data...

SL-16 DEB Visibility forecast

Observer location: undefined°, undefined°

Span
Click to sort rows by Start time (UTC) header in descending order
Start Az.
Max El. time (UTC)
Max El. Az.
Max El.
End time (UTC)
End Az.
7 mins2025-07-06 07:05:26.949Z299.689° NW2025-07-06 07:08:26.949Z261.768° W20.456°2025-07-06 07:12:26.949Z212.883° SW
7 mins2025-07-06 18:39:26.949Z133.957° SE2025-07-06 18:42:26.949Z99.538° ESE18.815°2025-07-06 18:46:26.949Z56.767° ENE
10 mins2025-07-06 20:22:26.949Z218.006° SW2025-07-06 20:27:26.949Z292.033° WNW41.176°2025-07-06 20:32:26.949Z14.118° NNE
10 mins2025-07-07 05:25:26.949Z343.483° N2025-07-07 05:30:26.949Z96.7° ESE42.193°2025-07-07 05:35:26.949Z148.314° SSE
|